TimeEST,TemperatureF,Dew PointF,Humidity,Sea Level PressureIn,VisibilityMPH,Wind Direction,Wind SpeedMPH,Gust SpeedMPH,PrecipitationIn,Events,Conditions,WindDirDegrees,DateUTC
12:54 AM,23.0,10.9,60,30.21,10.0,WSW,5.8,-,N/A,,Partly Cloudy,250,2014-02-09 05:54:00
1:54 AM,25.0,10.0,53,30.21,10.0,NW,3.5,-,N/A,,Partly Cloudy,310,2014-02-09 06:54:00
2:54 AM,23.0,10.9,60,30.20,10.0,NW,6.9,-,N/A,,Partly Cloudy,320,2014-02-09 07:54:00
3:54 AM,23.0,10.9,60,30.22,10.0,NW,5.8,-,N/A,,Scattered Clouds,320,2014-02-09 08:54:00
4:54 AM,24.1,10.9,57,30.21,10.0,NNW,9.2,-,N/A,,Mostly Cloudy,340,2014-02-09 09:54:00
5:54 AM,24.1,10.9,57,30.21,10.0,North,8.1,-,N/A,,Overcast,350,2014-02-09 10:54:00
6:54 AM,24.1,10.9,57,30.21,10.0,North,8.1,-,N/A,,Overcast,350,2014-02-09 11:54:00
7:54 AM,24.1,10.9,57,30.21,10.0,North,9.2,-,N/A,,Overcast,360,2014-02-09 12:54:00
8:54 AM,25.0,10.9,55,30.21,10.0,North,5.8,-,N/A,,Overcast,10,2014-02-09 13:54:00
9:54 AM,27.0,10.9,51,30.21,10.0,Calm,Calm,-,N/A,,Overcast,0,2014-02-09 14:54:00
10:54 AM,27.0,12.0,53,30.19,10.0,Calm,Calm,-,N/A,,Overcast,0,2014-02-09 15:54:00
11:54 AM,28.0,10.9,49,30.15,10.0,SE,3.5,-,N/A,,Overcast,140,2014-02-09 16:54:00
12:54 PM,28.0,10.0,47,30.11,10.0,Calm,Calm,-,N/A,,Overcast,0,2014-02-09 17:54:00
1:54 PM,30.0,12.0,47,30.07,10.0,Calm,Calm,-,N/A,,Overcast,0,2014-02-09 18:54:00
2:54 PM,30.0,12.0,47,30.07,10.0,SW,6.9,-,N/A,,Overcast,230,2014-02-09 19:54:00
3:54 PM,30.0,15.1,54,30.05,10.0,SE,5.8,-,N/A,,Overcast,140,2014-02-09 20:54:00
4:18 PM,30.2,17.6,60,30.05,6.0,South,6.9,-,0.00,Snow,Light Snow,190,2014-02-09 21:18:00
4:46 PM,28.4,19.4,69,30.03,5.0,South,6.9,-,0.00,Snow,Light Freezing Drizzle,180,2014-02-09 21:46:00
4:54 PM,28.9,19.9,69,30.03,5.0,South,6.9,-,0.00,Snow,Light Freezing Drizzle,170,2014-02-09 21:54:00
5:01 PM,28.4,21.2,74,30.03,4.0,South,5.8,-,0.01,Snow,Light Freezing Drizzle,180,2014-02-09 22:01:00
5:12 PM,28.4,21.2,74,30.04,2.0,South,3.5,-,0.01,Snow,Light Freezing Drizzle,170,2014-02-09 22:12:00
5:25 PM,28.4,21.2,74,30.05,1.5,South,5.8,-,0.02,Snow,Light Snow,180,2014-02-09 22:25:00
5:36 PM,28.4,21.2,74,30.05,0.5,SSW,5.8,-,0.03,Snow,Snow,200,2014-02-09 22:36:00
5:54 PM,27.0,24.1,89,30.04,0.5,SSW,4.6,-,0.05,Snow,Snow,200,2014-02-09 22:54:00
5:58 PM,26.6,24.8,93,30.05,0.5,SSW,6.9,-,0.00,Snow,Snow,210,2014-02-09 22:58:00
6:54 PM,26.1,23.0,88,30.06,0.5,WSW,3.5,-,0.06,Snow,Snow,250,2014-02-09 23:54:00
7:21 PM,26.6,21.2,80,30.05,1.0,West,5.8,-,0.01,Snow,Light Snow,270,2014-02-10 00:21:00
7:34 PM,26.6,21.2,80,30.05,0.8,SW,4.6,-,0.02,Snow,Light Snow,230,2014-02-10 00:34:00
7:54 PM,27.0,23.0,85,30.04,0.8,WSW,4.6,-,0.03,Snow,Light Snow,250,2014-02-10 00:54:00
8:02 PM,26.6,23.0,86,30.05,1.5,SW,3.5,-,0.00,Snow,Light Snow,230,2014-02-10 01:02:00
8:22 PM,26.6,21.2,80,30.04,2.0,WSW,5.8,-,0.00,Snow,Light Snow,240,2014-02-10 01:22:00
8:54 PM,27.0,21.9,81,30.05,2.0,SW,3.5,-,0.01,Snow,Light Snow,230,2014-02-10 01:54:00
9:40 PM,26.6,23.0,86,30.06,7.0,WSW,5.8,-,0.00,,Overcast,250,2014-02-10 02:40:00
9:54 PM,27.0,23.0,85,30.06,7.0,WSW,6.9,-,0.00,,Overcast,250,2014-02-10 02:54:00
10:33 PM,28.4,24.8,86,30.06,3.0,West,9.2,-,N/A,,Overcast,280,2014-02-10 03:33:00
10:54 PM,28.0,23.0,81,30.06,4.0,WNW,10.4,-,N/A,,Mostly Cloudy,290,2014-02-10 03:54:00
10:57 PM,28.4,23.0,80,30.06,5.0,West,9.2,-,N/A,,Mostly Cloudy,270,2014-02-10 03:57:00
11:11 PM,28.4,21.2,74,30.07,6.0,WNW,8.1,-,N/A,,Mostly Cloudy,290,2014-02-10 04:11:00
11:31 PM,26.6,21.2,80,30.07,6.0,WNW,8.1,16.1,N/A,,Mostly Cloudy,300,2014-02-10 04:31:00
11:54 PM,27.0,21.9,81,30.06,5.0,West,9.2,-,N/A,,Mostly Cloudy,280,2014-02-10 04:54:00